Regional Weather Roundup
Issued by NWS Charleston, SC

Current Version | Previous Version | Text Only | Print | Product List | Glossary On
Versions: 1 2 3 4 5 6 7 8 9 10 11 12 13 14 15 16 17 18 19 20 21 22 23 24 25 26 27 28 29 30 31 32 33 34 35 36 37 38 39 40 41 42 43 44 45 46 47 48 49 50
000
ASUS42 KCHS 240227
RWRCHS

REGIONAL WEATHER ROUNDUP
NATIONAL WEATHER SERVICE CHARLESTON SC
900 PM EST THU NOV 23 2017

NOTE: "FAIR" INDICATES FEW OR NO CLOUDS BELOW 12,000 FEET WITH NO
SIGNIFICANT WEATHER AND/OR OBSTRUCTIONS TO VISIBILITY.

NOT ALL STATIONS ARE QUALITY CONTROLLED. USE DATA WITH CAUTION...
ESPECIALLY DEWPOINT OBSERVATIONS.

SCZ027-030-031-034>040-042>050-240300-
...SOUTHEAST SOUTH CAROLINA...

CITY           SKY/WX    TMP DP  RH WIND       PRES   REMARKS
N CHARLESTON   CLOUDY    46  44  93 N6        30.02R
WATERFRONT PRK   N/A     48  45  89 N13       29.86R
JOHNS ISLAND   FAIR      46  45  93 N9        30.01S
PINOPOLIS        N/A     46  43  87 E9        29.93F
MONCKS CORNER  FAIR      43  41  93 NE5       30.02S
SUMMERVILLE    CLOUDY    45  43  93 CALM      30.03R
BEAUFORT MCAS  CLOUDY    47  45  93 N12       30.01S
BEAUFORT ARPT  CLOUDY    46  45  93 N9        30.01R
HILTON HEAD IS CLOUDY    48  45  87 NE14      30.00S
WALTERBORO     CLOUDY    45  43  93 NW3       30.04R
ALLENDALE      CLOUDY    45  39  81 N3        30.03R

...SOUTHERN MIDLANDS AND PEE DEE...

CITY           SKY/WX    TMP DP  RH WIND       PRES   REMARKS
GEORGETOWN     LGT RAIN  45  45 100 NE7       30.02S
KINGSTREE      FAIR      43  36  75 CALM      30.04R
ORANGEBURG     PTCLDY    44  36  73 CALM      30.04R
BARNWELL         N/A     43  39  87 CALM      30.04S
AIKEN          FAIR      37  36  93 CALM      30.07R
MANNING        FAIR      43  36  75 MISG      30.04R
COLUMBIA       CLEAR     41  38  89 CALM      30.04R
SUMTER         PTCLDY    39  33  80 NE5       30.01F WCI  35
FLORENCE       PTCLDY    44  36  73 NE9       30.04F
MYRTLE BEACH   CLOUDY    46  41  82 NE8       30.03S
N MYRTLE BEACH LGT RAIN  47  41  80 N8        30.02S

$$

GAZ063-065-086>088-099>101-113>116-118-119-134>141-150-240300-
...SOUTHEAST GEORGIA...

CITY           SKY/WX    TMP DP  RH WIND       PRES   REMARKS
SAVANNAH ARPT  CLOUDY    48  45  89 N8        30.02R
HUNTER AAF     CLOUDY    48  46  91 N5        29.99R
FORT STEWART   CLOUDY    48  45  87 N6        29.98S
STATESBORO     CLOUDY    49  39  68 NE3       30.03R
SYLVANIA       CLOUDY    48  43  83 NE3       30.04R
CLAXTON        CLOUDY    51  46  83 CALM      30.02R

...CSRA...CENTRAL AND FAR SOUTHEAST GEORGIA...

CITY           SKY/WX    TMP DP  RH WIND       PRES   REMARKS
THOMSON        CLEAR     39  38  95 CALM      30.09R
AUGUSTA-BUSH   CLEAR     42  40  92 CALM      30.03S
AUGUSTA-DANIEL CLEAR     50  39  66 NE3       30.04R
SWAINSBORO     FAIR      48  45  87 NE7       30.04R
VIDALIA        CLOUDY    52  46  82 NE5       30.03R
EASTMAN        CLOUDY    54  38  55 E3        30.05R
HAZLEHURST     CLOUDY    55  42  63 NE6       30.00S
ALMA           CLOUDY    53  50  89 VRB3      29.99R
WAYCROSS       CLOUDY    53  51  90 NE12      29.98S
JESUP          CLOUDY    52  48  87 CALM      30.00R
BAXLEY         CLOUDY    50  48  93 NE9       30.00R
BRUNSWICK      CLOUDY    52  50  93 N7        29.98R
SAINT SIMONS   CLOUDY    53  53 100 N14       29.95R

$$

SCZ027-028-034-036>038-045-046-048>050-GAZ119-141-240300-
...LAKE AND SUPPLEMENTAL COASTAL OBSERVATIONS...

STATION/POSITION TIME  TEMP    WIND        PRES    WAVE   SWELL
                       AIR SEA DIR/SP/G            HT/PER HT/PER/DIR
                 (UTC) (F)     (DEG/KT/KT) (MB)    (FT/S) (FT/S/D)
WINYAH BAY       0130   46      30/  7     1016.0S
LAKE MURRAY      0150   48      CALM  /  4 1016.6R
ACE BASIN NERRS  0145   46      10/  3     1016.0S
FORT PULASKI     0200   50 61   40/ 13/ 15 1015.9
SAPELO ISLAND    0200   53      10/ 14     1015.0

$$

ANZ835-935-AMZ111-154-330-350-352-354-370-450-454-472-240300-
...C-MAN AND BUOY OBSERVATIONS...

STATION/POSITION TIME  TEMP    WIND        PRES    WAVE   SWELL
                       AIR SEA DIR/SP/G            HT/PER HT/PER/DIR
                 (UTC) (F)     (DEG/KT/KT) (MB)    (FT/S) (FT/S/D)
BUOY 41004       0210   65 75   40/ 21/ 27 1013.6
BUOY 41008       0150   58 67   20/ 23/ 27 1013.2F   6/ 6   2/110/ 9
FOLLY BEACH CMAN 0200   49      20/ 12/ 15 1016.2R
CAPERS NEARSHORE 0208   48 61   30/ 17/ 21 1015.3R
FRIPP NEARSHORE  0208   49 62   30/ 10/ 23 1014.8F


STATION/POSITION TIME  TEMP    WIND        PRES    WAVE   SWELL
                       AIR SEA DIR/SP/G            HT/PER HT/PER/DIR
                 (UTC) (F)     (DEG/KT/KT) (MB)    (FT/S) (FT/S/D)
5E ST. MARYS GA  0200      67                N/A     7/ 6
FRYING PAN BUOY  0210   60 72   50/ 17/ 21 1015.6
BUOY 41025       0210   57 71   10/ 12/ 17 1017.0
CAPE LOOKOUT NC  0200           10/  9/ 12 1017.4R
BUOY 41002       0150   71 77   80/ 19/ 23 1012.6R   8/10   5/110/10
BUOY 41010       NOT AVBL
ST AUGUSTINE FL  0200   67 68   10/ 24/ 28 1011.1F


$$



USA.gov is the U.S. government's official web portal to all federal, state and local government web resources and services.